Location: West Cummington
(42.4920°N, 72.9680°W)
Time: 12:04:42
(UTC-04:00)

Daily predictions for brighter satellites

Satellite Brightness Start Highest point End
(mag) Time Altitude Azimuth Time Altitude Azimuth Time Altitude Azimuth
In-Cosmos 22 4.4 20:56:49 10° S 21:02:11 53° E 21:07:42 10° NNE
Iridium 4 Rocket 3.7 20:59:03 10° SSE 21:04:34 62° E 21:09:41 10° N
Meteor 1-16 Rocket 4.3 21:02:23 10° N 21:07:58 85° W 21:13:43 10° S
Cosmos 1953 Rocket 3.7 21:05:45 10° S 21:09:59 55° E 21:14:19 10° NNE
ERS-1 Rocket 4.0 21:07:27 10° SE 21:11:51 31° ENE 21:16:14 10° N
Cosmos 1758 Rocket 3.6 21:10:42 10° S 21:15:08 79° E 21:19:34 10° N
Cosmos 1437 2.9 21:13:24 10° N 21:16:31 51° ENE 21:19:36 10° SSE
USA 215 3.5 21:12:10 10° SE 21:18:42 71° SW 21:25:16 10° NW
Cosmos 1674 3.5 21:16:26 10° SSE 21:19:51 33° E 21:23:20 10° NNE
Terra 3.9 21:24:43 10° E 21:27:17 15° ENE 21:29:50 10° NNE
Resurs 01 Rocket 3.1 21:24:38 10° SSW 21:28:43 36° W 21:32:50 10° NNW
Cosmos 1726 3.2 21:26:30 10° NNE 21:29:50 30° ENE 21:32:39 13° SE
ERS-2 3.5 21:28:05 10° SSW 21:31:29 36° W 21:34:56 10° NNW
Cosmos 921 Rocket 3.2 21:28:08 10° NNW 21:32:37 65° ENE 21:36:46 12° SSE
OAO 3 Rocket 4.1 21:29:24 10° WSW 21:33:52 34° S 21:37:43 13° SE
SL-8 R/B 3.7 21:36:36 10° WSW 21:41:27 90° SE 21:46:18 10° ENE
ARGOS 3.2 21:36:50 10° SSE 21:42:16 85° WSW 21:47:44 10° NNW
Cosmos 2278 Rocket 3.1 21:37:31 10° SSE 21:42:20 29° ESE 21:47:11 10° NE
Cosmos 1315 Rocket 4.0 21:40:34 10° SSW 21:44:27 44° WNW 21:48:25 10° N
Cosmos 1461 4.0 21:40:44 10° S 21:44:41 29° ESE 21:48:47 10° NE
Iridium 81 4.0 21:44:48 19° SSE 21:46:23 50° E 21:49:15 10° NNE
MetOp-A 4.3 21:43:07 10° S 21:48:28 78° WSW 21:53:51 10° NNW
APEX 3.8 21:50:09 10° N 21:53:06 37° ENE 21:55:16 19° ESE
Cosmos 1745 Rocket 4.3 21:48:14 10° N 21:54:26 54° ENE 21:59:17 16° SSE
SL-08 R/B 4.5 21:51:37 10° N 21:57:47 72° E 22:03:04 15° SSE
Cosmos 220 Rocket 4.0 21:54:49 10° S 21:58:56 54° ESE 22:03:03 10° NNE
Cosmos 1844 Rocket 3.1 21:53:19 10° SSW 21:58:57 67° WNW 22:04:37 10° NNE
COSMOS 2406 3.2 21:54:08 10° NNW 21:59:57 86° ENE 22:04:22 18° SSE
Cosmos 1844 3.9 21:59:34 10° SSW 22:05:16 77° WNW 22:11:05 10° NNE
SL-08 RB Rocket 4.2 22:01:16 12° S 22:05:35 61° W 22:10:14 10° NNW
ATLAS 3B R/B 2.6 22:01:25 10° NW 22:08:06 85° NE 22:12:52 20° SE
CARTOSAT-1 4.4 22:06:45 20° SE 22:09:07 36° ENE 22:13:05 10° N
KORONAS-FOTON 3.9 22:05:23 10° SSW 22:09:17 78° W 22:13:13 10° N
Cosmos 1110 Rocket 4.3 22:04:19 10° NNW 22:09:25 61° WSW 22:13:32 16° S
SPOT 5 3.1 22:06:25 19° SSE 22:10:03 69° ENE 22:15:21 10° N
SL-14 R/B 3.7 22:09:27 24° SSE 22:11:24 44° E 22:15:10 10° NNE
USA 238 DEB 3.9 22:05:08 10° NW 22:12:15 72° WSW 22:17:40 19° SSE
USA 238 3.9 22:05:14 10° NW 22:12:21 73° WSW 22:17:45 19° SSE
Cosmos 1346 Rocket 4.4 22:11:32 10° NNW 22:15:08 32° W 22:18:44 10° SSW
ATLAS 5 CENTAUR R/B 2.4 22:14:23 23° SSE 22:16:09 31° ESE 22:20:21 10° NE
Cosmos-2242 4.5 22:12:54 10° NNW 22:16:54 35° W 22:20:54 10° SSW
Lacrosse 5 3.7 22:12:35 10° W 22:17:09 33° NNW 22:21:45 10° NE
NOSS 2-2 (C) 4.1 22:20:40 28° SE 22:21:14 30° ESE 22:24:52 10° NE
S3M 4.1 22:15:56 10° S 22:22:17 87° W 22:28:44 10° N
SPOT 1/Viking Rocket 3.5 22:20:08 22° SSE 22:23:34 87° ENE 22:28:44 10° NNW
H-2A R/B 3.0 22:18:45 10° S 22:23:43 44° W 22:28:53 10° NNW
NOSS 3-2 (A) 4.1 22:16:19 10° NW 22:23:56 90° ENE 22:29:42 22° SE
Cosmos 1709 Rocket 4.4 22:21:40 10° N 22:27:41 48° ENE 22:31:05 24° SE
Cosmos 2082 Rocket 3.2 22:24:24 10° N 22:29:40 36° ENE 22:33:00 19° ESE
Cosmos 1833 Rocket 3.5 22:25:11 10° N 22:30:27 40° ENE 22:33:38 21° ESE
Helios 1A 3.0 22:28:25 26° S 22:30:44 77° WSW 22:34:57 10° NNW
Helios 1B rocket 2.4 22:27:39 10° NNE 22:31:45 64° ESE 22:33:40 29° S
Cosmos 1626 2.8 22:31:41 34° ESE 22:32:27 38° E 22:35:57 10° NNE
Cosmos 1842 Rocket 3.9 22:32:20 10° NNW 22:36:38 60° W 22:39:11 23° SSW
CZ-2C R/B 3.4 22:32:52 10° NNE 22:37:49 35° E 22:39:35 28° SE
ATLAS 2AS CENTAUR R/B 4.1 22:32:20 10° WSW 22:39:56 49° NW 22:47:47 10° NNE
Cosmos 1340 3.8 22:36:55 10° NNW 22:40:28 39° W 22:42:34 20° SSW
Aureole 3 Rocket 4.4 22:37:55 24° SSE 22:42:20 52° E 22:47:46 10° NNE
Landsat 7 3.9 22:42:27 27° S 22:45:00 70° WSW 22:49:47 10° NNW
Spot 1 4.1 22:46:00 36° SSE 22:47:48 82° ENE 22:52:27 10° NNW
NOSS 3-2 (C) 4.0 22:42:11 10° NW 22:49:48 86° SW 22:54:47 27° SSE
ERS-1 Rocket 4.3 22:46:44 13° SSW 22:50:32 32° W 22:55:04 10° NNW
Cosmos 1302 Rocket 4.5 22:45:40 10° NNW 22:50:49 54° WSW 22:53:36 26° S
Cosmos 1455 3.2 22:55:16 10° NNE 22:58:41 31° ENE 22:59:05 30° E
Cosmos 1300 3.5 22:56:26 10° NNW 23:00:07 45° W 23:01:28 31° SW
Cosmos 2251 Rocket 4.5 22:58:20 10° SW 23:03:28 47° WNW 23:08:36 10° N
Terra 1.9 23:02:30 35° S 23:04:27 69° WSW 23:09:13 10° NNW
Cosmos 2315 Rocket 4.0 23:02:10 27° S 23:05:51 87° E 23:12:16 10° N
RESURS DK-1 2.4 23:06:04 51° SE 23:06:25 53° ESE 23:10:28 10° NE
Cosmos 2221 3.0 23:02:21 10° NNW 23:06:36 54° W 23:08:10 34° SSW
Cosmos 1992 Rocket 4.0 23:01:35 10° NNW 23:06:49 74° ENE 23:08:42 40° SE
Okean 3 Rocket 3.4 23:06:52 44° S 23:08:14 86° E 23:12:38 10° N
ADEOS Rocket 4.4 23:05:35 10° NE 23:10:22 23° E 23:11:41 22° ESE
H-2A R/B 4.2 23:09:34 25° S 23:13:17 33° SE 23:48:14 10° E
NOSS 2-2 (E) 3.7 23:11:46 19° SW 23:14:25 66° NW 23:18:53 10° NNE
Meteor 1-29 3.9 23:11:28 10° N 23:14:43 44° WNW 23:15:42 33° WSW
COBE Rocket 4.2 23:09:48 10° NNE 23:14:48 53° E 23:16:06 42° SE
CENTAUR R/B 3.2 23:07:16 10° NNW 23:15:15 75° NE 23:20:13 28° SE
NOSS 3-4 (A) 3.9 23:10:49 10° SW 23:16:56 64° NW 23:23:22 10° NNE
NOSS 3-4 (C) 3.8 23:10:53 10° SW 23:17:00 65° NW 23:23:26 10° NNE
Cosmos 1328 Rocket 4.3 23:16:04 10° N 23:20:10 39° ENE 23:20:48 36° E
Cosmos 2184 Rocket 4.4 23:15:12 10° N 23:21:21 51° ENE 23:23:43 35° SE
Cosmos 2228 Rocket 4.4 23:18:13 10° NNE 23:22:02 27° ENE 23:22:45 26° E
CZ-2C R/B 3.6 23:19:33 32° SSW 23:22:12 61° W 23:27:55 10° NNW
Cosmos 1328 4.3 23:21:27 38° SW 23:22:36 54° W 23:26:30 10° N
Meteor 1-11 4.2 23:20:55 38° S 23:23:16 80° E 23:29:06 10° NNE
SAR-Lupe-4 4.0 23:23:20 48° ENE 23:23:24 48° ENE 23:26:53 10° N
Cosmos 2278 Rocket 3.4 23:20:53 10° SW 23:26:13 42° WNW 23:31:37 10° NNE
Spot 4 3.8 23:33:05 52° SSE 23:34:17 88° E 23:39:11 10° NNW
ATLAS 3B CENTAUR R/B 4.0 23:23:47 10° WSW 23:35:03 29° S 23:35:03 29° S
Cosmos 407 Rocket 3.6 23:35:41 48° SE 23:36:25 53° ESE 23:41:27 10° NNE
Cosmos 1441 Rocket 3.3 23:35:54 10° N 23:39:34 63° ENE 23:39:34 63° ENE
SAR-Lupe-1 4.2 23:41:45 67° NE 23:41:45 67° NE 23:45:09 10° N
SL-19 R/B 4.3 23:41:56 10° NNE 23:47:16 55° E 23:48:11 49° SE
Cosmos 1500 Rocket 4.1 23:50:19 43° E 23:50:19 43° E 23:54:23 10° NNE
Cosmos 1190 Rocket 3.9 23:49:20 55° S 23:50:23 73° ESE 23:55:35 10° NNE
Cosmos 405 Rocket 2.8 23:48:18 10° N 23:51:43 64° NE 23:51:43 64° NE
Cosmos 2369 Rocket 3.2 23:54:56 28° ESE 23:55:05 28° ESE 23:59:50 10° NE
